[[{"header":{"parameterUnit":"m.s-1","parameterCategory":1,"la1":30.2991,"la2":30.254,"lo1":-89.0895,"lo2":-89.0444,"dy":0.0017,"dx":0.0017,"nx":28,"ny":28,"refTime":"2023-08-18T03:00:00:Z","depth":0,"parameterNumber":2,"parameterNumberName":"U-component_of_WINDS"},"data":[0,0,0,0,0,0,0,0,0,0,0,0,0,0,0,0,0,0,0,0,0,0,0,0,0,0,0,0,0,0,0,0,0,0,0,0,0,0,0,0,0,0,0,0,0,0,0,0,0,0,0,0,0,0,0,0,0,0,2.1133,2.1133,0,2.118,2.118,2.1181,2.1101,2.1098,2.1095,2.1093,2.1144,2.1148,2.1152,0,0,0,0,0,0,0,0,0,0,0,0,0,2.0973,2.0977,2.1133,2.1133,2.1134,2.118,2.118,2.1181,2.1101,2.1098,2.1095,2.1092,2.1143,2.1147,2.1152,0,0,0,0,0,0,0,0,0,0,0,0,0,2.1034,2.0978,2.1133,2.11,2.1097,2.118,2.118,2.1181,2.1102,2.1098,2.1094,2.109,2.1141,2.1147,2.1153,2.127,0,0,2.117,2.1173,0,0,0,0,0,0,0,0,2.1031,2.104,2.1104,2.1102,2.1099,2.113,2.1143,2.1211,2.1103,2.11,2.1093,2.1088,2.1143,2.1148,2.1166,2.1273,2.1275,2.1171,2.1174,2.1177,2.1179,0,0,0,0,0,0,0,2.1027,2.1037,2.1151,2.1105,2.1102,2.1082,2.1086,2.1155,2.1144,2.11,2.1094,2.1101,2.1141,2.1161,2.1167,2.1276,2.1171,2.1176,2.118,2.1182,2.1478,2.1482,0,0,0,0,0,0,2.1026,2.1034,2.115,2.1153,2.1054,2.1088,2.1093,2.1125,2.1143,2.1142,2.1104,2.1097,2.1153,2.116,2.1168,2.1305,2.1177,2.1182,2.1186,2.1473,2.1479,2.1483,0,0,0,0,0,0,2.1023,2.1037,2.1148,2.1092,2.1105,2.1096,2.1132,2.1128,2.1147,2.1146,2.1144,2.1127,2.115,2.116,2.1245,2.1306,2.1185,2.119,2.1468,2.1475,2.1481,2.1581,0,0,0,0,0,0,2.1019,2.1037,2.1082,2.1094,2.1108,2.1224,2.1135,2.1131,2.1157,2.1148,2.1167,2.1166,2.1147,2.1236,2.125,2.1312,2.1195,2.1463,2.1471,2.1479,2.1573,2.1591,2.1606,0,0,0,0,0,2.1013,2.111,2.1084,2.1099,2.1164,2.1228,2.1236,2.1212,2.1163,2.1207,2.1206,2.1165,2.1297,2.1246,2.1261,2.1325,2.1459,2.1469,2.1478,2.1565,2.1587,2.1605,0,0,0,0,0,0,2.1107,2.1111,2.1083,2.1186,2.1207,2.1214,2.127,2.1237,2.1273,2.1263,2.1232,2.1237,2.1328,2.1335,2.1278,2.1438,2.1369,2.1383,2.143,2.1451,2.1467,2.1464,2.12,0,0,0,0,0,2.1139,2.119,2.1191,2.1282,2.1293,2.128,2.1307,2.1286,2.1307,2.1316,2.1321,2.1344,2.1389,2.1421,2.1463,2.1573,2.1575,2.1624,2.1641,2.1654,2.1666,2.1722,2.1743,2.1515,2.1515,2.1515,0,0,2.1207,2.1215,2.125,2.13,2.1314,2.1367,2.1288,2.1349,2.1387,2.1326,2.1405,2.1409,2.1432,2.1529,2.1572,2.1537,2.1729,2.1667,2.1678,2.1682,2.1734,2.1756,2.1775,2.1522,2.1521,2.152,0,0,2.1358,2.137,2.1445,2.146,2.1481,2.1471,2.1489,2.15,2.15,2.1579,2.1532,2.1578,2.1659,2.1676,2.1696,2.1848,2.1811,2.1863,2.195,2.2005,2.2023,2.2039,2.2091,2.2111,2.1875,2.1875,2.1875,0,2.144,2.1518,2.1488,2.1551,2.1573,2.1517,2.1593,2.1609,2.1644,2.166,2.1621,2.1718,2.173,2.1829,2.1865,2.1884,2.1902,2.1861,2.2023,2.2038,2.2052,2.2102,2.2122,2.1881,2.188,2.188,2.1879,0,2.1616,2.1671,2.1729,2.1761,2.179,2.1859,2.184,2.1873,2.1849,2.1842,2.1922,2.1933,2.1975,2.1997,2.1976,2.2092,2.207,2.2027,2.1958,2.2081,2.2127,2.2146,2.189,2.1888,2.1886,2.1884,0,0,2.1829,2.1841,2.1863,2.1876,2.1893,2.1935,2.2,2.204,2.2068,2.2093,2.2146,2.2214,2.2173,2.2195,2.2174,2.2222,2.234,2.2173,2.2173,2.2202,2.2466,2.2498,2.2521,2.2315,2.2319,2.2321,2.2464,0,2.1977,2.2088,2.2062,2.2172,2.2221,2.2167,2.2223,2.224,2.2235,2.2276,2.227,2.2318,2.2262,2.2274,2.2319,2.2316,2.2392,2.2305,2.2364,2.2366,2.2359,2.2545,2.2579,2.2713,2.2482,2.2485,2.2487,0,2.2165,2.2195,2.2309,2.2315,2.2335,2.2386,2.2419,2.2458,2.2475,2.2468,2.2491,2.246,2.2523,2.2452,2.2538,2.248,2.2502,2.2504,2.2508,2.2512,2.2434,2.2553,2.2756,2.2776,2.2516,2.2514,2.2511,0,2.2307,2.2376,2.2452,2.2464,2.2475,2.2511,2.2517,2.253,2.2554,2.2583,2.2598,2.2634,2.2654,2.2683,2.2662,2.2612,2.275,2.2679,2.2746,2.2746,2.2778,2.2776,2.2985,2.2793,2.2793,2.2793,2.2792,0,2.2475,2.2547,2.2515,2.2562,2.264,2.2609,2.2687,2.2686,2.2697,2.2743,2.2699,2.2742,2.2712,2.2753,2.2737,2.281,2.2819,2.2815,2.281,2.2818,2.2819,2.2832,2.2822,2.2798,2.2797,2.2796,2.2795,0,2.2647,2.2629,2.2708,2.2709,2.2711,2.2769,2.277,2.2813,2.2803,2.2861,2.2873,2.2859,2.2904,2.2886,2.2935,2.2923,2.3016,2.2999,2.301,2.3005,2.3073,2.3066,2.3298,2.3326,2.3117,2.3119,2.312,0,2.2755,2.2808,2.2814,2.2841,2.2849,2.2893,2.2916,2.2887,2.2913,2.2934,2.2975,2.3016,2.3047,2.3122,2.3116,2.3152,2.3135,2.3214,2.3141,2.3147,2.3135,2.3132,2.3136,2.3229,2.3231,2.3233,2.3235,0,2.2948,2.2935,2.2971,2.3003,2.3031,2.3056,2.3076,2.31,2.3071,2.3103,2.3147,2.3172,2.3219,2.326,2.3292,2.3298,2.3262,2.3258,2.3275,2.3284,2.3288,2.3285,2.3049,2.3253,2.3251,2.325,2.3249,2.3248,2.309,2.3134,2.3144,2.3184,2.3195,2.3214,2.3254,2.3248,2.3285,2.332,2.3301,2.3352,2.3365,2.3403,2.3413,2.3453,2.3422,2.3448,2.3454,2.3461,2.3468,2.3281,2.3459,2.3458,2.3458,2.3457,2.3457,0,2.3279,2.3282,2.332,2.3348,2.3379,2.334,2.3359,2.3388,2.3434,2.3448,2.3478,2.3529,2.3567,2.3563,2.3598,2.363,2.3615,2.3641,2.3638,2.3639,2.3495,2.3476,2.3653,2.3653,2.3653,2.3653,2.3653,2.3653,2.3382,2.3453,2.3441,2.3516,2.3519,2.3568,2.3582,2.3599,2.3609,2.3667,2.3698,2.3694,2.37,2.3735,2.3768,2.3765,2.378,2.3812,2.3804,2.3669,2.365,2.3631,2.3613,2.3816,2.3816,2.3944,2.3946,2.3947]},{"header":{"parameterUnit":"m.s-1","parameterCategory":1,"la1":30.2991,"la2":30.254,"lo1":-89.0895,"lo2":-89.0444,"dy":0.0017,"dx":0.0017,"nx":28,"ny":28,"refTime":"2023-08-18T03:00:00:Z","depth":0,"parameterNumber":3,"parameterNumberName":"V-component_of_WINDS"},"data":[0,0,0,0,0,0,0,0,0,0,0,0,0,0,0,0,0,0,0,0,0,0,0,0,0,0,0,0,0,0,0,0,0,0,0,0,0,0,0,0,0,0,0,0,0,0,0,0,0,0,0,0,0,0,0,0,0,0,5.0428,5.0428,0,5.0427,5.0427,5.0427,5.0329,5.0327,5.0324,5.0322,5.032,5.0322,5.0325,0,0,0,0,0,0,0,0,0,0,0,0,0,5.0344,5.0346,5.0428,5.0428,5.0428,5.0427,5.0427,5.0427,5.033,5.0327,5.0324,5.0321,5.0319,5.0322,5.0325,0,0,0,0,0,0,0,0,0,0,0,0,0,5.0366,5.0347,5.0428,5.0379,5.0375,5.0427,5.0427,5.0427,5.033,5.0327,5.0323,5.0319,5.0318,5.0322,5.0325,5.0424,0,0,5.0336,5.0338,0,0,0,0,0,0,0,0,5.0365,5.0369,5.0387,5.0383,5.0378,5.0374,5.0397,5.0426,5.0331,5.0347,5.0322,5.0317,5.0341,5.0343,5.0351,5.0424,5.0424,5.0336,5.0339,5.034,5.0341,0,0,0,0,0,0,0,5.0363,5.0368,5.0428,5.0387,5.0382,5.0357,5.0356,5.0402,5.0366,5.0346,5.0339,5.034,5.0338,5.0348,5.035,5.0424,5.0336,5.0339,5.0342,5.0343,5.0575,5.0579,0,0,0,0,0,0,5.0369,5.0368,5.0428,5.0428,5.0362,5.0362,5.036,5.038,5.0365,5.0359,5.0343,5.0335,5.0344,5.0346,5.035,5.0462,5.034,5.0343,5.0345,5.0571,5.0576,5.058,0,0,0,0,0,0,5.0367,5.0375,5.0428,5.0396,5.0401,5.0367,5.039,5.0382,5.0391,5.0363,5.0356,5.036,5.0341,5.0345,5.0406,5.0461,5.0345,5.0348,5.0566,5.0573,5.0578,5.0689,0,0,0,0,0,0,5.0365,5.0375,5.0412,5.0397,5.0403,5.0485,5.0393,5.0384,5.0397,5.0387,5.0377,5.0371,5.0338,5.0401,5.0409,5.0463,5.0351,5.0561,5.0569,5.0576,5.068,5.0698,5.0713,0,0,0,0,0,5.0363,5.0444,5.0415,5.0423,5.0449,5.0488,5.0491,5.0451,5.0402,5.0439,5.0421,5.0372,5.0454,5.0408,5.0416,5.0473,5.0557,5.0567,5.0576,5.0673,5.0694,5.0713,0,0,0,0,0,0,5.0466,5.0441,5.0408,5.0488,5.0491,5.0471,5.0516,5.0476,5.0493,5.0482,5.0432,5.0431,5.0499,5.0492,5.0441,5.0566,5.0497,5.0508,5.0568,5.0588,5.0604,5.0604,5.0354,0,0,0,0,0,5.0499,5.0533,5.0509,5.0581,5.0584,5.0551,5.0566,5.0535,5.0536,5.0537,5.0523,5.0526,5.0552,5.057,5.0593,5.0679,5.0675,5.0722,5.0739,5.0752,5.0762,5.0805,5.0825,5.061,5.061,5.061,0,0,5.0565,5.0556,5.058,5.0601,5.06,5.0635,5.0552,5.0594,5.0619,5.0543,5.0599,5.0589,5.0589,5.0663,5.0694,5.0659,5.0821,5.0764,5.0775,5.0777,5.0817,5.0837,5.0855,5.0617,5.0615,5.0614,0,0,5.0704,5.0701,5.076,5.076,5.0759,5.0736,5.075,5.0737,5.0728,5.0783,5.0726,5.0756,5.0803,5.0804,5.0811,5.095,5.0904,5.0959,5.1045,5.1088,5.1105,5.1119,5.1167,5.1185,5.0969,5.097,5.097,0,5.0786,5.0838,5.0795,5.084,5.085,5.0783,5.0841,5.0844,5.085,5.0859,5.0819,5.0875,5.0871,5.0942,5.0976,5.0985,5.0999,5.0959,5.1106,5.112,5.1133,5.1178,5.1196,5.0976,5.0975,5.0975,5.0974,0,5.0938,5.0975,5.1022,5.103,5.1046,5.1097,5.1061,5.1083,5.1051,5.1032,5.1089,5.1081,5.11,5.1115,5.1085,5.1183,5.116,5.1115,5.1043,5.1161,5.1202,5.1219,5.0985,5.0983,5.0981,5.0979,0,0,5.1141,5.1124,5.1142,5.1143,5.1138,5.1165,5.1213,5.1231,5.125,5.1257,5.1295,5.1336,5.1293,5.1301,5.127,5.1308,5.1416,5.1257,5.1256,5.1285,5.1521,5.1554,5.1575,5.1387,5.139,5.1393,5.152,0,5.1273,5.1354,5.1317,5.1401,5.1433,5.137,5.1412,5.1413,5.1397,5.1421,5.1403,5.1432,5.1374,5.1378,5.1414,5.1396,5.1462,5.1386,5.142,5.1422,5.142,5.1596,5.1631,5.1752,5.1536,5.1539,5.1541,0,5.1438,5.1451,5.1539,5.1525,5.1538,5.1576,5.1589,5.1614,5.1613,5.1598,5.1607,5.1568,5.1613,5.1545,5.1606,5.1555,5.1567,5.156,5.1564,5.1563,5.1487,5.1598,5.179,5.1808,5.1566,5.1564,5.1563,0,5.1574,5.1614,5.1671,5.1675,5.1661,5.1689,5.1685,5.168,5.1693,5.1705,5.1713,5.1731,5.174,5.1754,5.1719,5.1673,5.1785,5.1714,5.1773,5.1773,5.1797,5.1795,5.1991,5.1809,5.1809,5.1809,5.1808,0,5.1724,5.1779,5.1731,5.1766,5.1826,5.1783,5.1843,5.1832,5.1829,5.186,5.1808,5.1838,5.1792,5.1817,5.1791,5.1845,5.185,5.1838,5.183,5.1842,5.1843,5.1847,5.1837,5.1814,5.1812,5.1812,5.1811,0,5.1885,5.1855,5.1912,5.1895,5.1892,5.1937,5.1921,5.1952,5.1933,5.1973,5.198,5.1949,5.1977,5.1945,5.197,5.1952,5.2024,5.2005,5.2024,5.2017,5.2077,5.2071,5.228,5.2304,5.211,5.2112,5.2113,0,5.1981,5.2022,5.2009,5.2025,5.2024,5.2053,5.2065,5.2025,5.204,5.2042,5.2072,5.2096,5.2111,5.2158,5.2138,5.2156,5.2136,5.2208,5.2138,5.2148,5.2134,5.2131,5.2134,5.2221,5.2223,5.2225,5.2227,0,5.2154,5.2137,5.2158,5.2173,5.219,5.22,5.2207,5.2224,5.2181,5.2201,5.2228,5.2241,5.2266,5.2289,5.2302,5.2297,5.2255,5.2249,5.2263,5.2274,5.2283,5.2276,5.206,5.2244,5.2242,5.2241,5.224,5.224,5.2284,5.2316,5.2312,5.2336,5.2336,5.2343,5.2371,5.2355,5.2377,5.2394,5.2369,5.2402,5.2399,5.2412,5.2412,5.2438,5.2407,5.2428,5.2433,5.2438,5.2446,5.2281,5.244,5.244,5.2439,5.2439,5.2438,0,5.2452,5.2445,5.2468,5.2478,5.2497,5.2457,5.2462,5.248,5.251,5.2511,5.2528,5.2558,5.258,5.2562,5.258,5.2604,5.2585,5.261,5.2606,5.2605,5.2474,5.2458,5.2625,5.2625,5.2625,5.2625,5.2625,5.2625,5.2541,5.2594,5.2576,5.2628,5.2622,5.2654,5.2659,5.2665,5.2666,5.2702,5.272,5.2708,5.2701,5.2718,5.2736,5.273,5.2738,5.277,5.2757,5.2633,5.2615,5.2597,5.2583,5.2773,5.2773,5.2886,5.2887,5.2888]}]]